WetterOnline ( http://www.wetteronline.de )

Wetter aktuell Donau-Ries

Aktuelles Wetter: Harburg (503m)

6-stündlich | Neueste Meldungen
Ortszeit Temperatur Wetter
Do, 21.02. 1:00 4.4° C bedeckt
Mi, 20.02. 19:00 7.7° C bedeckt
Mi, 20.02. 13:00 8.0° C wolkig
Mi, 20.02. 7:00 0.2° C Nebel
Mi, 20.02. 1:00 3.4° C wolkig
Di, 19.02. 19:00 6.4° C bedeckt
Di, 19.02. 13:00 7.3° C bewölkt
Di, 19.02. 7:00 1.4° C wolkig
Ortszeit Temperatur Wetter
Do, 21.02. 6:00 2.7° C wolkig
Do, 21.02. 5:50 2.7° C wolkig
Do, 21.02. 5:40 2.7° C wolkig
Do, 21.02. 5:30 2.7° C bewölkt
Do, 21.02. 5:20 2.7° C bewölkt
Do, 21.02. 5:10 3.0° C wolkig
Do, 21.02. 5:00 3.2° C fast wolkenlos
Do, 21.02. 4:30 4.1° C leicht bewölkt
Do, 21.02. 4:00 4.1° C wolkig
Do, 21.02. 3:30 3.8° C bedeckt
Do, 21.02. 3:00 4.2° C leicht bewölkt
Ortszeit Relative Feuchte Sichtweite
Do, 21.02. 1:00 77% 21 km
Mi, 20.02. 19:00 62% 40 km
Mi, 20.02. 13:00 67% 23 km
Mi, 20.02. 7:00 98% 0.2 km
Mi, 20.02. 1:00 89% 11 km
Di, 19.02. 19:00 76% 20 km
Di, 19.02. 13:00 65% 14 km
Di, 19.02. 7:00 78% 11 km
Ortszeit Relative Feuchte Sichtweite
Do, 21.02. 6:00 87% 7 km
Do, 21.02. 5:50 87% -
Do, 21.02. 5:40 87% -
Do, 21.02. 5:30 86% 8 km
Do, 21.02. 5:20 86% -
Do, 21.02. 5:10 85% -
Do, 21.02. 5:00 84% 9 km
Do, 21.02. 4:30 81% 12 km
Do, 21.02. 4:00 80% 14 km
Do, 21.02. 3:30 81% 10 km
Do, 21.02. 3:00 80% 12 km
Ortszeit Niederschlagsmenge Niederschlagsart
Do, 21.02. 1:00 0.0 l/m2 in 6 Std. -
Mi, 20.02. 19:00 0.0 l/m2 in 12 Std. -
Mi, 20.02. 13:00 0.0 l/m2 in 6 Std. -
Mi, 20.02. 7:00 0.0 l/m2 in 12 Std. -
Mi, 20.02. 1:00 0.0 l/m2 in 6 Std. -
Di, 19.02. 19:00 0.1 l/m2 in 12 Std. Regen
Di, 19.02. 13:00 0.0 l/m2 in 6 Std. -
Di, 19.02. 7:00 0.0 l/m2 in 12 Std. -
Ortszeit Niederschlagsmenge Niederschlagsart
Do, 21.02. 6:00 0.0 l/m2 in 1 Std. -
Do, 21.02. 5:50 keine Meldung -
Do, 21.02. 5:40 keine Meldung -
Do, 21.02. 5:30 0.0 l/m2 in 1 Std. -
Do, 21.02. 5:20 keine Meldung -
Do, 21.02. 5:10 keine Meldung -
Do, 21.02. 5:00 0.0 l/m2 in 1 Std. -
Do, 21.02. 4:30 0.0 l/m2 in 1 Std. -
Do, 21.02. 4:00 0.0 l/m2 in 1 Std. -
Do, 21.02. 3:30 0.0 l/m2 in 1 Std. -
Do, 21.02. 3:00 0.0 l/m2 in 1 Std. -
Ortszeit Stärke Spitze Richtung
km/h Bft. km/h Grad Sektor
Do, 21.02. 1:00 6 1 9 130° SO
Mi, 20.02. 19:00 7 2 18 280° W
Mi, 20.02. 13:00 13 3 20 320° NW
Mi, 20.02. 7:00 7 2 7 140° SO
Mi, 20.02. 1:00 4 1 29 240° SW
Di, 19.02. 19:00 20 4 33 310° NW
Di, 19.02. 13:00 7 2 30 180° S
Di, 19.02. 7:00 11 2 18 190° S
Ortszeit Stärke Spitze Richtung
km/h Bft. km/h Grad Sektor
Do, 21.02. 6:00 4 1 7 160° S
Do, 21.02. 5:50 4 1 - 160° S
Do, 21.02. 5:40 4 1 - 160° S
Do, 21.02. 5:30 4 1 4 140° SO
Do, 21.02. 5:20 4 1 - 140° SO
Do, 21.02. 5:10 4 1 - 130° SO
Do, 21.02. 5:00 0 0 7 - -
Do, 21.02. 4:30 2 1 6 220° SW
Do, 21.02. 4:00 6 1 7 180° S
Do, 21.02. 3:30 4 1 7 150° SO
Do, 21.02. 3:00 4 1 4 190° S
Ortszeit Untergrenze Bedeckung Gattung
total tief tief mittel hoch
Do, 21.02. 1:00 990 m 8/8 8/8 - - -
Mi, 20.02. 19:00 3300 m 8/8 8/8 - - -
Mi, 20.02. 13:00 660 m 8/8 2/8 - - -
Mi, 20.02. 7:00 7500 m 8/8 0/8 - - -
Mi, 20.02. 1:00 8400 m 8/8 0/8 - - -
Di, 19.02. 19:00 1260 m 8/8 8/8 - - -
Di, 19.02. 13:00 1800 m 7/8 7/8 - - -
Di, 19.02. 7:00 9000 m 8/8 0/8 - - -
Ortszeit Bedeckungsgrad in Achtel und Wolkenuntergrenze
Do, 21.02. 6:00 3(2400m) 7(10500m)
Do, 21.02. 5:50 3(2400m) 7(10500m)
Do, 21.02. 5:40 5(2400m) 7(10500m)
Do, 21.02. 5:30 7(2400m)
Do, 21.02. 5:20 7(2400m)
Do, 21.02. 5:10 6(2400m)
Do, 21.02. 5:00 1(2400m)
Do, 21.02. 4:30 2(870m)
Do, 21.02. 4:00 6(900m) 6(2400m)
Do, 21.02. 3:30 7(870m) 8(2400m)
Do, 21.02. 3:00 2(990m) 3(2400m)
Ortszeit Luftdruck NN (hPa) Tendenz (hPa in 3 Std.)
Do, 21.02. 1:00 1028 + 0,4
Mi, 20.02. 19:00 1026 + 0,5
Mi, 20.02. 13:00 1026 + 0,5
Mi, 20.02. 7:00 1026 + 0,4
Mi, 20.02. 1:00 1025 + 0,7
Di, 19.02. 19:00 1022 + 0,7
Di, 19.02. 13:00 1022 0,0
Di, 19.02. 7:00 1022 + 0,8
Ortszeit Luftdruck NN (hPa) Tendenz (hPa in 3 Std.)
Do, 21.02. 6:00 1029 + 0,3
Do, 21.02. 5:50 1029 keine Meldung
Do, 21.02. 5:40 1029 keine Meldung
Do, 21.02. 5:30 1029 + 0,3
Do, 21.02. 5:20 1029 keine Meldung
Do, 21.02. 5:10 1029 keine Meldung
Do, 21.02. 5:00 1029 + 0,2
Do, 21.02. 4:30 1029 + 0,2
Do, 21.02. 4:00 1029 + 0,3
Do, 21.02. 3:30 1029 + 0,4
Do, 21.02. 3:00 1029 + 0,5
Ortszeit Schneehöhe (cm)
Do, 21.02. 1:00 -
Mi, 20.02. 19:00 -
Mi, 20.02. 13:00 0
Mi, 20.02. 7:00 0
Mi, 20.02. 1:00 0
Di, 19.02. 19:00 0
Di, 19.02. 13:00 0
Di, 19.02. 7:00 0
Ortszeit Schneehöhe (cm)
Do, 21.02. 6:00 -
Do, 21.02. 5:50 -
Do, 21.02. 5:40 -
Do, 21.02. 5:30 -
Do, 21.02. 5:20 -
Do, 21.02. 5:10 -
Do, 21.02. 5:00 -
Do, 21.02. 4:30 -
Do, 21.02. 4:00 -
Do, 21.02. 3:30 -
Do, 21.02. 3:00 -
Link zu dieser Seite / Seite empfehlen

Das Wetter in ...